Flag for Benin Weather past 2 weeks in Porto Novo, Benin

Now
90 °F

Scattered clouds.


Feels Like: 103 °F
Forecast: 80 / 91 °F
Wind: 13 mph from South

Location: Cotonou Airport

Current Time: Mar 6, 2015 at 2:38:04 PM

Latest Report: Mar 6, 2015 at 2:00 PM


Visibility: N/A

Pressure: 29.80 "Hg

Humidity: 67%

Dew point: 77 °F

Location of Porto NovoLocation

Historic Weather in Porto Novo — Graph

°F

Porto Novo temperature yesterday

Maximum temperature yesterday: 90 °F (at 1:00 PM)
Minimum temperature yesterday: 79 °F (at 6:00 AM)
Average temperature yesterday: 84 °F

Past Weeks' High & Low Weather Summary

 TemperatureHumidityPressure
High91 °F (Feb 28, 1:00 PM)94% (Feb 20, 8:00 AM)29.89 "Hg (Feb 20, 8:00 AM)
Low77 °F (Feb 28, 7:00 AM)56% (Feb 28, 1:00 PM)29.71 "Hg (Feb 20, 4:00 PM)
Average84 °F80%29.80 "Hg
* Reported Feb 19 12:00 Noon — Mar 6 12:00 Noon, Porto Novo, Weather by CustomWeather, © 2015

Note: Actual official high and low records may vary slightly from our data, if they occured in-between our weather recording intervals... More about our weather records

Advertising

Porto Novo weather history for previous 24 hours

 ConditionsComfort  
Time TempWeatherWind HumidityBarometerVisibility
12:00 PM
Fri, Mar 6
90 °FScattered clouds.9 mph71%29.86 "HgN/A
11:00 AM88 °FScattered clouds.8 mph75%29.86 "HgN/A
10:00 AM88 °FScattered clouds.8 mph70%29.86 "HgN/A
9:00 AM86 °FScattered clouds.9 mph75%29.86 "HgN/A
8:00 AM82 °FScattered clouds.7 mph84%29.83 "HgN/A
7:00 AM82 °FPassing clouds.6 mph84%29.80 "HgN/A
6:00 AM82 °FPassing clouds.6 mph84%29.77 "HgN/A
5:00 AM82 °FPassing clouds.9 mph84%29.77 "HgN/A
4:00 AM82 °FPassing clouds.10 mph84%29.77 "HgN/A
3:00 AM82 °FPassing clouds.9 mph84%29.77 "HgN/A
2:00 AM82 °FPassing clouds.10 mph84%29.80 "HgN/A
1:00 AM82 °FPassing clouds.13 mph84%29.80 "HgN/A
12:00 AM82 °FPassing clouds.10 mph84%29.83 "HgN/A
11:00 PM
Thu, Mar 5
82 °FPassing clouds.10 mph84%29.83 "HgN/A
10:00 PM84 °FPassing clouds.12 mph79%29.80 "HgN/A
9:00 PM84 °FPassing clouds.10 mph79%29.77 "HgN/A
8:00 PM84 °FPassing clouds.10 mph79%29.77 "HgN/A
7:00 PM84 °FScattered clouds.12 mph79%29.77 "HgN/A
6:00 PM86 °FScattered clouds.12 mph75%29.74 "HgN/A
5:00 PM88 °FScattered clouds.12 mph70%29.71 "HgN/A
4:00 PM90 °FScattered clouds.13 mph67%29.74 "HgN/A
3:00 PM90 °FPassing clouds.13 mph67%29.77 "HgN/A
2:00 PM90 °FScattered clouds.10 mph67%29.80 "HgN/A
Weather by CustomWeather, © 2015

See weather overviewHow to use our weather pages